Theta_e
347 348 348 346 345 344 343 342 340 340 342 343 344 345 344 345 346 345 346 346 344 346 346 348 353 357 358 356 353 352 351 350 349 348 347 348 348 348 348 348 348 347 345
348 347 348 346 344 344 342 341 341 342 342 343 345 347 347 347 347 348 347 348 344 344 346 347 349 357 359 358 354 352 351 349 349 349 347 347 346 347 347 348 348 347 346
350 349 346 345 344 345 346 344 344 344 343 345 348 349 349 350 348 349 349 347 346 345 344 347 348 354 358 359 356 353 351 348 349 349 348 346 346 345 346 347 348 347 346
352 349 346 345 346 345 343 343 343 343 344 347 348 348 348 349 349 349 349 348 346 349 348 345 347 351 355 357 357 356 352 348 348 347 348 347 346 345 345 346 346 347 346
351 349 347 347 349 344 342 342 343 344 346 347 346 346 347 346 348 346 348 347 349 351 351 349 344 347 351 353 356 356 354 350 347 347 347 347 347 347 346 346 345 346 346
352 350 348 347 347 343 342 342 345 347 346 345 343 344 346 346 346 346 345 344 350 351 351 352 352 349 345 349 352 355 356 353 349 348 346 345 346 347 346 346 345 345 346
352 353 349 349 347 345 344 343 343 344 343 343 342 342 341 344 344 345 344 347 348 348 349 347 349 350 350 345 347 350 354 355 353 350 346 344 344 345 346 346 345 344 344
350 350 351 349 347 343 345 345 345 342 345 344 341 336 330 336 340 345 345 345 347 347 343 343 345 348 353 352 350 346 349 351 353 352 347 343 343 344 345 345 344 343 343
350 351 349 349 348 345 341 344 345 346 340 341 344 339 330 327 333 342 343 343 345 345 344 343 344 345 347 350 349 348 344 346 349 351 349 344 344 345 345 344 344 343 343
348 348 349 348 350 346 347 345 346 347 344 343 339 340 343 341 332 327 339 340 344 342 345 341 341 338 345 347 352 350 343 342 345 348 349 347 347 347 346 345 344 343 342
349 347 349 349 349 350 351 349 346 345 343 339 338 337 341 339 341 332 327 334 338 341 341 338 340 342 347 349 352 350 338 337 339 341 343 345 346 346 347 346 345 344 343
347 350 350 351 350 350 349 345 340 333 334 332 332 334 335 334 334 335 332 333 333 337 339 339 339 342 348 349 350 342 335 333 333 333 334 336 338 340 342 343 344 344 345
346 349 350 348 348 350 348 342 340 334 333 331 335 336 340 338 339 337 338 334 336 335 335 341 339 343 346 349 351 341 336 331 329 329 329 330 333 334 336 337 337 339 343
345 349 348 348 348 348 348 346 340 338 333 331 335 337 340 341 343 342 343 341 333 335 334 336 340 342 345 349 347 336 346 330 327 326 326 326 328 329 331 332 333 334 335
343 344 345 346 346 347 348 349 347 343 340 335 338 343 343 343 345 343 342 338 331 326 326 334 335 346 347 346 345 347 345 327 328 326 325 324 324 325 326 326 327 329 330
334 335 336 338 339 340 342 344 343 344 341 343 343 344 343 341 342 341 337 337 334 330 324 334 338 343 345 344 342 344 341 331 324 323 324 323 322 322 323 323 324 326 327
330 330 331 334 333 334 338 339 339 338 337 338 339 338 336 339 336 338 337 332 329 329 324 333 338 342 342 342 342 340 340 343 334 320 318 316 314 314 314 317 320 322 324
327 327 328 328 329 330 335 334 332 332 332 332 331 334 333 334 338 341 338 334 330 330 330 332 336 339 338 340 339 339 340 340 340 320 316 315 314 314 314 315 315 314 313
325 325 325 327 328 328 330 332 331 330 331 331 330 331 333 335 336 338 340 338 333 332 331 329 330 335 335 334 336 338 338 337 334 321 317 316 315 315 315 316 316 315 313
323 324 325 325 326 328 327 328 329 329 330 329 331 333 331 332 335 337 339 339 337 333 334 332 332 333 332 333 333 334 332 332 333 331 321 320 319 317 317 318 319 319 315
324 324 325 326 327 328 326 329 330 330 330 329 331 331 331 329 325 328 334 340 341 335 334 333 332 331 328 327 329 335 332 334 333 333 330 332 332 333 330 321 323 320 315
325 325 325 326 326 322 309 311 317 323 323 325 328 330 330 326 325 316 316 316 328 338 338 338 335 331 331 330 332 333 332 328 327 333 331 330 332 335 335 335 317 312 311
325 325 324 322 322 322 307 306 307 320 321 323 324 327 327 324 326 331 322 315 315 311 317 341 338 333 332 334 334 333 332 331 330 331 332 329 331 332 335 329 313 310 307
322 320 320 320 320 319 305 303 304 319 319 320 323 326 328 330 330 329 332 335 339 338 327 327 338 338 337 339 336 336 335 334 332 332 334 328 333 331 334 333 311 310 308
319 318 318 318 318 318 302 300 306 316 315 317 320 324 327 330 316 304 328 333 335 335 315 311 312 309 309 312 323 333 330 329 326 328 331 331 329 328 328 331 331 309 306
317 315 316 317 312 317 302 299 306 313 314 315 319 324 310 320 307 301 324 330 333 334 325 327 327 317 314 315 308 337 334 328 328 326 332 330 328 330 325 332 332 331 330
Wind_Speed
7 7 6 6 5 4 4 5 5 4 4 5 5 6 6 6 6 4 4 5 11 12 12 12 13 12 13 15 15 14 13 15 15 14 14 13 13 12 13 13 13 13 12
7 8 6 6 5 5 4 4 4 3 3 4 5 6 6 5 7 7 5 6 8 13 13 13 13 14 13 14 14 14 13 13 14 15 15 14 13 13 14 15 15 15 14
11 10 8 7 7 7 8 6 6 4 4 4 6 6 6 5 6 8 6 6 7 9 12 12 13 14 15 14 14 14 14 13 14 14 16 15 14 13 14 15 15 15 14
12 11 9 9 8 6 6 6 6 5 5 4 4 5 6 5 7 8 7 6 6 6 6 12 13 13 15 15 15 15 14 14 13 14 16 15 15 15 14 14 14 15 16
14 12 9 8 9 7 6 7 6 6 5 4 4 4 6 6 7 7 9 7 6 4 5 7 11 10 13 14 14 15 16 14 13 14 15 15 15 15 15 15 16 16 16
16 10 10 10 10 8 9 7 8 7 5 3 2 5 7 7 7 6 7 5 3 5 6 7 8 6 10 11 13 15 18 16 14 14 13 14 15 16 16 15 16 16 16
16 14 10 10 11 11 9 10 9 8 8 4 1 3 2 5 6 4 4 3 3 2 5 6 7 7 6 7 11 15 18 15 14 13 13 13 15 15 15 16 16 16 16
15 12 14 11 12 10 10 11 10 7 5 5 4 2 1 2 2 2 2 4 4 5 2 5 8 9 9 6 7 12 18 16 13 11 12 13 12 13 15 16 17 17 16
14 14 11 8 11 10 9 8 10 10 7 5 6 3 3 4 3 1 3 4 2 5 7 6 8 8 8 6 9 10 18 16 12 10 12 12 12 12 14 14 15 16 15
14 13 11 10 9 8 9 9 5 6 2 4 0 6 7 3 3 7 3 3 6 4 6 7 10 7 7 9 12 12 10 14 10 10 10 11 11 12 13 13 14 15 15
14 14 13 12 11 9 9 9 7 5 4 1 3 6 8 8 7 9 11 8 2 4 7 7 8 9 8 8 10 10 12 9 9 9 8 7 7 10 11 12 13 14 14
11 14 14 12 12 10 10 9 7 3 5 9 8 13 16 13 7 6 7 7 6 6 7 5 6 10 5 7 9 9 7 7 8 6 4 5 6 7 8 9 11 13 15
8 11 12 12 11 11 12 11 7 10 9 13 14 11 11 11 9 9 7 7 6 7 6 6 6 7 6 5 6 5 6 10 7 5 4 4 5 4 5 6 6 9 11
8 6 7 9 9 10 10 10 9 9 7 5 18 16 10 8 6 8 6 6 9 8 8 11 5 8 4 4 4 3 5 6 7 6 3 3 1 3 4 5 6 6 7
6 7 7 9 9 9 10 10 9 12 14 17 19 11 9 6 6 6 5 5 4 8 11 5 5 1 3 4 2 3 4 5 6 5 3 0 1 3 3 4 5 4 4
5 6 7 7 8 8 8 10 8 9 8 7 8 8 7 5 6 6 5 5 6 5 6 5 4 3 4 3 2 5 3 5 6 7 5 3 2 3 3 4 2 3 2
7 7 7 7 7 7 8 8 8 9 9 7 6 6 6 5 6 6 5 4 6 6 9 12 6 4 5 5 5 5 5 3 5 7 5 3 2 2 1 1 3 3 3
8 8 8 7 7 7 8 8 8 7 6 5 4 4 5 3 7 7 6 7 7 8 6 13 6 5 5 4 4 5 4 2 2 6 3 2 3 2 2 6 6 6 6
9 9 9 9 8 7 7 6 5 4 3 3 3 4 5 5 7 7 8 7 7 7 8 7 7 3 4 3 3 6 5 4 2 6 6 4 3 3 5 8 7 7 5
9 10 11 10 9 8 7 6 5 4 4 4 4 5 6 7 8 9 8 9 8 8 8 9 8 6 5 3 5 6 5 4 4 3 4 4 2 3 5 6 5 5 2
10 11 11 10 9 7 6 6 5 4 4 5 6 7 7 9 9 11 9 9 9 8 6 7 10 6 4 2 6 5 6 4 4 3 3 3 3 3 3 4 4 4 1
12 12 12 12 11 7 10 7 4 3 4 5 7 9 9 9 10 12 13 14 14 10 10 10 10 8 8 7 6 6 6 5 4 4 4 3 4 2 2 1 5 0 2
13 12 11 10 9 7 9 7 6 3 4 7 9 10 10 9 8 11 12 14 13 16 18 12 12 8 6 9 8 8 8 5 3 5 4 2 4 2 1 4 5 2 1
13 12 10 9 8 7 9 8 6 5 5 8 10 12 13 13 13 11 13 13 13 9 8 9 12 8 7 7 9 7 8 6 5 4 3 2 1 1 1 1 4 4 3
11 11 11 11 10 9 10 10 7 5 6 10 11 13 13 14 14 11 10 13 12 7 4 2 4 3 5 8 7 8 7 7 5 4 4 4 3 1 0 2 2 4 2
10 9 10 10 10 10 11 11 7 5 8 8 11 13 11 15 14 10 8 11 12 8 8 8 5 5 5 5 8 7 7 6 4 5 6 5 4 2 4 2 1 4 5
Wind_Direction
203 209 203 204 190 201 212 211 202 225 251 254 272 273 278 284 283 278 281 268 270 265 264 273 277 249 220 214 214 214 215 221 213 222 227 226 225 220 226 227 223 221 217
205 203 209 211 204 187 209 238 243 214 246 271 267 264 274 281 283 283 293 290 255 267 261 256 259 260 234 221 213 218 212 219 221 218 224 227 227 221 223 227 224 222 217
206 207 203 206 219 207 190 212 223 213 234 241 275 279 286 281 279 280 287 286 294 242 253 251 251 252 242 229 225 216 217 210 219 221 224 224 225 227 224 231 227 226 225
212 203 208 211 203 210 207 217 214 220 231 226 262 284 279 277 276 279 283 286 288 302 269 242 236 240 249 235 228 223 219 212 213 220 225 224 222 227 227 227 230 224 228
226 204 213 212 198 213 213 216 222 224 222 221 244 269 273 266 268 274 279 287 288 311 325 316 283 257 239 247 243 234 226 218 209 218 228 225 222 225 229 226 229 224 221
227 212 211 206 208 197 218 199 223 213 232 225 251 274 267 273 269 257 257 260 296 355 332 311 303 281 240 241 248 249 235 223 215 218 225 226 223 223 226 228 226 228 222
208 213 226 216 208 214 215 202 213 210 224 183 166 250 276 280 273 285 248 287 267 57 332 319 303 300 287 232 245 249 250 233 221 215 223 223 222 223 224 227 230 226 224
207 189 207 212 227 231 208 198 193 221 206 190 169 123 333 294 244 132 248 300 287 300 273 302 299 297 284 277 231 239 248 241 228 218 219 226 222 222 224 226 231 232 222
205 208 212 212 204 213 228 218 191 216 203 201 232 151 175 227 292 252 221 238 282 255 288 300 293 286 271 268 265 230 242 237 222 224 222 222 221 225 227 227 232 234 231
204 200 202 199 206 210 208 206 180 202 223 221 213 258 294 182 210 298 216 246 252 270 276 290 306 268 251 262 252 254 233 229 218 223 226 226 219 231 235 232 232 231 231
205 207 203 202 203 202 187 151 145 181 138 336 321 327 275 267 276 264 276 265 281 264 291 286 294 283 267 254 250 239 227 229 220 216 225 239 238 241 243 240 235 232 230
199 204 202 200 206 206 198 176 154 169 297 313 289 267 267 271 263 239 248 265 263 297 285 260 264 278 256 257 252 250 215 224 225 202 208 238 252 259 268 269 256 243 230
207 203 193 195 204 200 200 206 194 190 205 239 244 248 248 257 260 262 262 269 274 287 277 250 250 259 277 277 273 246 185 222 214 205 210 224 222 235 246 257 273 275 247
219 202 186 190 201 207 205 194 191 198 189 240 258 254 245 248 241 239 233 266 276 268 273 274 247 265 257 268 305 226 209 179 150 137 155 212 217 239 261 280 279 284 275
201 195 188 191 200 203 188 181 194 193 193 219 227 233 241 255 255 250 239 253 249 289 291 263 263 263 333 301 338 240 203 149 126 116 111 250 268 275 275 268 270 278 273
178 172 177 185 186 191 184 186 187 194 201 211 212 218 231 236 244 239 218 240 233 238 266 274 287 310 305 274 223 236 181 158 83 73 52 31 337 287 275 260 245 265 292
175 185 184 180 185 187 179 178 179 178 191 194 205 221 238 244 253 252 227 213 225 190 247 274 293 299 269 238 221 219 200 181 115 67 46 28 13 353 331 15 56 35 36
181 182 184 188 187 184 179 183 178 171 180 192 209 231 268 264 257 252 242 217 226 213 223 272 290 272 247 233 229 229 209 185 170 96 73 52 67 66 87 76 79 77 70
187 186 186 188 191 188 185 189 197 187 200 239 278 277 284 277 272 267 248 244 230 225 197 233 241 203 230 213 224 229 218 198 155 129 134 125 88 85 85 82 80 74 64
197 200 198 195 193 189 193 196 201 216 230 258 280 281 286 283 281 277 268 248 243 227 207 224 240 243 211 178 220 229 203 214 207 152 88 50 15 110 89 84 87 80 52
194 202 196 192 185 184 190 186 195 215 241 264 256 257 267 272 270 271 279 269 246 234 220 233 239 239 184 168 219 203 229 197 192 179 183 165 222 208 131 132 125 113 344
181 182 193 181 174 186 144 170 192 224 268 279 284 282 284 276 266 248 258 248 251 251 248 241 238 225 214 216 204 200 195 198 202 173 189 158 251 203 120 141 98 301 285
173 184 187 184 183 185 171 183 186 263 286 291 288 285 283 280 266 277 272 254 239 232 238 253 240 217 201 207 187 192 197 192 194 133 217 172 218 220 112 130 166 155 155
176 178 186 189 196 208 194 206 194 255 270 280 277 274 272 274 274 276 283 283 279 265 226 227 233 227 210 167 189 194 185 146 133 131 189 233 188 157 120 176 159 168 141
186 183 189 197 208 226 205 214 217 265 290 278 272 268 264 265 270 255 275 280 280 263 37 303 267 256 193 154 185 165 169 182 163 166 189 252 127 124 74 236 220 161 148
204 202 212 218 215 227 195 206 214 273 274 275 272 269 245 251 274 258 261 276 279 253 178 174 163 110 154 137 195 208 172 195 167 169 160 221 139 229 164 143 148 174 183